[[{"header":{"parameterUnit":"m.s-1","parameterCategory":1,"la1":30.2991,"la2":30.254,"lo1":-89.0895,"lo2":-89.0444,"dy":0.0017,"dx":0.0017,"nx":28,"ny":28,"refTime":"2024-08-15T21:00:00:Z","depth":0,"parameterNumber":2,"parameterNumberName":"U-component_of_WINDS"},"data":[0,0,0,0,0,0,0,0,0,0,0,0,0,0,0,0,0,0,0,0,0,0,0,0,0,0,0,0,0,0,0,0,0,0,0,0,0,0,0,0,0,0,0,0,0,0,0,0,0,0,0,0,0,0,0,0,0,0,-0.2491,-0.2491,0,-0.2439,-0.2438,-0.2437,-0.24,-0.24,-0.2399,-0.2399,-0.2343,-0.2342,-0.2341,0,0,0,0,0,0,0,0,0,0,0,0,0,-0.2559,-0.2558,-0.2491,-0.2491,-0.249,-0.2439,-0.2438,-0.2437,-0.24,-0.24,-0.2399,-0.2399,-0.2343,-0.2342,-0.234,0,0,0,0,0,0,0,0,0,0,0,0,0,-0.252,-0.2558,-0.2491,-0.2465,-0.2462,-0.2439,-0.2438,-0.2437,-0.24,-0.24,-0.2399,-0.2399,-0.2344,-0.2342,-0.234,-0.2338,0,0,-0.2335,-0.2334,0,0,0,0,0,0,0,0,-0.2523,-0.2518,-0.247,-0.2467,-0.2464,-0.2425,-0.2441,-0.2404,-0.24,-0.2424,-0.2399,-0.2399,-0.2371,-0.2367,-0.2358,-0.2335,-0.2333,-0.2335,-0.2333,-0.2333,-0.2332,0,0,0,0,0,0,0,-0.2525,-0.252,-0.247,-0.2469,-0.2465,-0.2456,-0.245,-0.2434,-0.24,-0.2422,-0.2419,-0.2413,-0.2369,-0.2359,-0.2356,-0.2332,-0.2335,-0.2333,-0.2332,-0.2331,-0.2307,-0.2307,0,0,0,0,0,0,-0.2532,-0.2522,-0.2472,-0.2469,-0.2493,-0.2455,-0.2448,-0.2438,-0.24,-0.2394,-0.2414,-0.2412,-0.2363,-0.2358,-0.2354,-0.2349,-0.2333,-0.2331,-0.233,-0.2306,-0.2307,-0.2307,0,0,0,0,0,0,-0.2534,-0.2528,-0.2474,-0.2495,-0.2487,-0.2454,-0.2443,-0.2437,-0.2428,-0.2394,-0.2388,-0.241,-0.2362,-0.2356,-0.2343,-0.2347,-0.233,-0.2328,-0.2306,-0.2306,-0.2307,-0.234,0,0,0,0,0,0,-0.2536,-0.2529,-0.2528,-0.2495,-0.2486,-0.2464,-0.2443,-0.2437,-0.2425,-0.2422,-0.2389,-0.2383,-0.2361,-0.2346,-0.2341,-0.2344,-0.2327,-0.2305,-0.2306,-0.2307,-0.2339,-0.2342,-0.2345,0,0,0,0,0,-0.2539,-0.2538,-0.2528,-0.2522,-0.2484,-0.2464,-0.2459,-0.2434,-0.2425,-0.2424,-0.2403,-0.2385,-0.2348,-0.2344,-0.2339,-0.2342,-0.2305,-0.2306,-0.2307,-0.2337,-0.2341,-0.2345,0,0,0,0,0,0,-0.2571,-0.2533,-0.2521,-0.251,-0.2491,-0.2458,-0.2455,-0.2439,-0.2421,-0.2419,-0.2389,-0.2381,-0.2371,-0.2355,-0.2352,-0.2338,-0.2324,-0.2324,-0.2349,-0.2353,-0.2356,-0.236,-0.2325,0,0,0,0,0,-0.2577,-0.2564,-0.2532,-0.2526,-0.2517,-0.2488,-0.2478,-0.2461,-0.2439,-0.2431,-0.2408,-0.2388,-0.2371,-0.2361,-0.2344,-0.2336,-0.2329,-0.2336,-0.2339,-0.2342,-0.2342,-0.2338,-0.2341,-0.2311,-0.2311,-0.2311,0,0,-0.2589,-0.2567,-0.256,-0.2532,-0.2514,-0.2502,-0.2481,-0.2468,-0.2459,-0.2428,-0.2414,-0.2398,-0.2373,-0.2362,-0.2357,-0.2348,-0.2349,-0.2343,-0.2345,-0.2344,-0.2339,-0.2342,-0.2345,-0.2311,-0.2311,-0.2311,0,0,-0.2604,-0.2586,-0.2579,-0.2563,-0.2538,-0.2519,-0.2518,-0.2488,-0.2476,-0.2462,-0.2439,-0.2428,-0.24,-0.2384,-0.2372,-0.2384,-0.2367,-0.2379,-0.2395,-0.2392,-0.2394,-0.2396,-0.2401,-0.2403,-0.2379,-0.2379,-0.238,0,-0.2622,-0.2603,-0.2578,-0.2567,-0.2556,-0.2529,-0.2522,-0.2508,-0.2478,-0.2471,-0.2463,-0.2429,-0.241,-0.2396,-0.24,-0.239,-0.2388,-0.2382,-0.2396,-0.2398,-0.2399,-0.2404,-0.2406,-0.2381,-0.2381,-0.2381,-0.2381,0,-0.2626,-0.2614,-0.2611,-0.2585,-0.2573,-0.2564,-0.2538,-0.253,-0.2514,-0.2497,-0.2483,-0.246,-0.2439,-0.2434,-0.2418,-0.2419,-0.2415,-0.2402,-0.2387,-0.2404,-0.2408,-0.2409,-0.2384,-0.2383,-0.2383,-0.2382,0,0,-0.2659,-0.2621,-0.262,-0.2609,-0.258,-0.257,-0.2561,-0.2541,-0.2534,-0.2515,-0.2507,-0.2486,-0.2474,-0.2461,-0.2443,-0.244,-0.2453,-0.2427,-0.2426,-0.2434,-0.2453,-0.2463,-0.2466,-0.2442,-0.2442,-0.2442,-0.2455,0,-0.267,-0.2653,-0.2631,-0.2621,-0.2609,-0.2585,-0.2577,-0.2559,-0.2543,-0.2531,-0.2513,-0.2498,-0.2484,-0.2476,-0.2472,-0.2452,-0.2456,-0.2451,-0.2434,-0.2434,-0.2441,-0.2467,-0.2478,-0.2491,-0.2457,-0.2457,-0.2457,0,-0.268,-0.2664,-0.2654,-0.2628,-0.2622,-0.2616,-0.2597,-0.2586,-0.2565,-0.2554,-0.254,-0.2522,-0.2511,-0.2499,-0.2484,-0.2481,-0.2473,-0.2463,-0.2463,-0.246,-0.2446,-0.2466,-0.2495,-0.2497,-0.2459,-0.2459,-0.2459,0,-0.2706,-0.2682,-0.2673,-0.2663,-0.2633,-0.2629,-0.2616,-0.2595,-0.2586,-0.2569,-0.2563,-0.2545,-0.2536,-0.2523,-0.25,-0.2493,-0.2489,-0.2474,-0.2479,-0.248,-0.2479,-0.2479,-0.2507,-0.2474,-0.2474,-0.2474,-0.2474,0,-0.2721,-0.2716,-0.2684,-0.2678,-0.2672,-0.2648,-0.2642,-0.2627,-0.2609,-0.26,-0.2578,-0.257,-0.2541,-0.253,-0.2512,-0.2504,-0.2499,-0.249,-0.2486,-0.2492,-0.2494,-0.2486,-0.2485,-0.2474,-0.2474,-0.2474,-0.2474,0,-0.2748,-0.2727,-0.2716,-0.2688,-0.2682,-0.2678,-0.2655,-0.2649,-0.2632,-0.2622,-0.2618,-0.2591,-0.2578,-0.2554,-0.2533,-0.2522,-0.2517,-0.2509,-0.2524,-0.2521,-0.2528,-0.2528,-0.2553,-0.2555,-0.252,-0.252,-0.2521,0,-0.2759,-0.2755,-0.2728,-0.2721,-0.2709,-0.2698,-0.2688,-0.2665,-0.2656,-0.2633,-0.263,-0.2615,-0.2601,-0.2581,-0.256,-0.2544,-0.2536,-0.2545,-0.2533,-0.254,-0.2536,-0.2537,-0.2537,-0.2548,-0.2549,-0.2549,-0.2549,0,-0.2781,-0.2771,-0.2759,-0.2743,-0.2733,-0.2719,-0.2704,-0.27,-0.2673,-0.2664,-0.265,-0.264,-0.262,-0.2605,-0.2587,-0.2574,-0.2557,-0.2554,-0.2554,-0.2561,-0.257,-0.2566,-0.2532,-0.2553,-0.2553,-0.2552,-0.2552,-0.2552,-0.2801,-0.2796,-0.2777,-0.2764,-0.2751,-0.2738,-0.2732,-0.2715,-0.2704,-0.2686,-0.2673,-0.266,-0.2641,-0.2616,-0.2604,-0.2594,-0.2586,-0.2587,-0.2587,-0.2587,-0.259,-0.2572,-0.259,-0.259,-0.259,-0.259,-0.259,0,-0.2822,-0.2809,-0.2798,-0.2779,-0.2769,-0.2756,-0.2739,-0.2732,-0.2721,-0.2706,-0.2693,-0.2679,-0.2665,-0.2644,-0.2629,-0.2625,-0.2617,-0.2622,-0.2622,-0.2619,-0.2597,-0.2599,-0.2628,-0.2628,-0.2628,-0.2628,-0.2628,-0.2628,-0.2832,-0.2824,-0.2813,-0.2798,-0.2785,-0.2774,-0.2765,-0.2754,-0.2741,-0.2726,-0.2715,-0.2702,-0.2684,-0.2668,-0.2655,-0.2649,-0.2645,-0.2652,-0.2644,-0.2624,-0.262,-0.2617,-0.2618,-0.2651,-0.2651,-0.2667,-0.2667,-0.2667]},{"header":{"parameterUnit":"m.s-1","parameterCategory":1,"la1":30.2991,"la2":30.254,"lo1":-89.0895,"lo2":-89.0444,"dy":0.0017,"dx":0.0017,"nx":28,"ny":28,"refTime":"2024-08-15T21:00:00:Z","depth":0,"parameterNumber":3,"parameterNumberName":"V-component_of_WINDS"},"data":[0,0,0,0,0,0,0,0,0,0,0,0,0,0,0,0,0,0,0,0,0,0,0,0,0,0,0,0,0,0,0,0,0,0,0,0,0,0,0,0,0,0,0,0,0,0,0,0,0,0,0,0,0,0,0,0,0,0,2.8171,2.8171,0,2.8172,2.8172,2.8172,2.8186,2.8186,2.8187,2.8187,2.8186,2.8186,2.8185,0,0,0,0,0,0,0,0,0,0,0,0,0,2.8177,2.8177,2.8171,2.8171,2.8171,2.8172,2.8172,2.8172,2.8186,2.8186,2.8187,2.8187,2.8186,2.8186,2.8185,0,0,0,0,0,0,0,0,0,0,0,0,0,2.8176,2.8177,2.8171,2.8178,2.8178,2.8172,2.8172,2.8172,2.8186,2.8186,2.8187,2.8187,2.8186,2.8186,2.8185,2.8171,0,0,2.8184,2.8183,0,0,0,0,0,0,0,0,2.8176,2.8176,2.8177,2.8177,2.8178,2.8179,2.8174,2.8172,2.8186,2.8183,2.8187,2.8188,2.8183,2.8183,2.8182,2.8171,2.8171,2.8184,2.8183,2.8183,2.8183,0,0,0,0,0,0,0,2.8176,2.8176,2.8171,2.8177,2.8177,2.818,2.818,2.8173,2.818,2.8183,2.8184,2.8184,2.8184,2.8182,2.8182,2.8171,2.8184,2.8183,2.8183,2.8183,2.8147,2.8146,0,0,0,0,0,0,2.8175,2.8176,2.8171,2.8171,2.8178,2.8179,2.818,2.8178,2.818,2.8181,2.8184,2.8185,2.8183,2.8183,2.8182,2.8164,2.8183,2.8183,2.8182,2.8147,2.8146,2.8146,0,0,0,0,0,0,2.8175,2.8175,2.8171,2.8174,2.8173,2.8179,2.8177,2.8178,2.8177,2.8181,2.8182,2.8182,2.8184,2.8183,2.8174,2.8165,2.8182,2.8182,2.8148,2.8147,2.8146,2.813,0,0,0,0,0,0,2.8176,2.8175,2.817,2.8173,2.8173,2.8163,2.8176,2.8178,2.8176,2.8178,2.8179,2.8179,2.8184,2.8174,2.8173,2.8164,2.8181,2.8149,2.8147,2.8146,2.8131,2.8128,2.8126,0,0,0,0,0,2.8176,2.8166,2.817,2.817,2.8168,2.8163,2.8163,2.8169,2.8176,2.817,2.8172,2.8179,2.8166,2.8173,2.8172,2.8163,2.8149,2.8148,2.8146,2.8132,2.8129,2.8126,0,0,0,0,0,0,2.8161,2.8166,2.8171,2.8162,2.8162,2.8165,2.8159,2.8165,2.8162,2.8164,2.8171,2.8171,2.816,2.816,2.8168,2.8148,2.8159,2.8157,2.8148,2.8145,2.8142,2.8142,2.8181,0,0,0,0,0,2.8157,2.8153,2.8158,2.8149,2.8149,2.8154,2.8152,2.8156,2.8156,2.8156,2.8158,2.8156,2.8152,2.8148,2.8145,2.8131,2.813,2.8124,2.8121,2.8119,2.8117,2.8108,2.8105,2.8141,2.8141,2.8141,0,0,2.8148,2.815,2.8148,2.8146,2.8147,2.8141,2.8154,2.8148,2.8144,2.8155,2.8146,2.8147,2.8146,2.8134,2.8129,2.8134,2.8107,2.8117,2.8116,2.8115,2.8106,2.8103,2.81,2.814,2.814,2.814,0,0,2.8129,2.8131,2.8123,2.8123,2.8124,2.8127,2.8125,2.8127,2.8128,2.812,2.8127,2.8122,2.8114,2.8112,2.8111,2.8089,2.8095,2.8087,2.8074,2.8065,2.8062,2.806,2.805,2.8047,2.8086,2.8086,2.8086,0,2.8118,2.8111,2.8118,2.8112,2.811,2.812,2.8111,2.8111,2.811,2.8108,2.8114,2.8103,2.8103,2.809,2.8085,2.8084,2.808,2.8087,2.8062,2.806,2.8057,2.8048,2.8045,2.8085,2.8085,2.8085,2.8085,0,2.8096,2.8092,2.8085,2.8084,2.8081,2.8074,2.8079,2.8075,2.8079,2.8081,2.8071,2.8072,2.8067,2.8064,2.8069,2.8051,2.8054,2.8061,2.8072,2.8053,2.8045,2.8041,2.8083,2.8084,2.8084,2.8084,0,0,2.8069,2.8071,2.8068,2.8067,2.8068,2.8063,2.8055,2.8051,2.8047,2.8046,2.8038,2.8031,2.8036,2.8034,2.8038,2.8031,2.8011,2.8038,2.8038,2.8032,2.799,2.7984,2.798,2.8015,2.8015,2.8014,2.7989,0,2.8049,2.8037,2.8042,2.8029,2.8023,2.8032,2.8024,2.8023,2.8025,2.8019,2.802,2.8014,2.8023,2.8022,2.8015,2.8015,2.8003,2.8017,2.8007,2.8006,2.8006,2.7976,2.797,2.7947,2.7986,2.7986,2.7986,0,2.8025,2.8023,2.8009,2.8009,2.8006,2.8,2.7996,2.7991,2.7989,2.799,2.7987,2.7992,2.7983,2.7993,2.7979,2.7989,2.7985,2.7984,2.7983,2.7982,2.7994,2.7973,2.794,2.7936,2.7981,2.7981,2.7982,0,2.8005,2.7998,2.7988,2.7987,2.7987,2.7982,2.7982,2.798,2.7977,2.7973,2.797,2.7965,2.7961,2.7956,2.7959,2.7967,2.7944,2.7955,2.7943,2.7943,2.7937,2.7938,2.7903,2.7937,2.7937,2.7937,2.7937,0,2.7982,2.7973,2.7979,2.7972,2.7961,2.7967,2.7956,2.7956,2.7955,2.7947,2.7954,2.7947,2.7952,2.7945,2.7947,2.7934,2.7932,2.7932,2.7932,2.7931,2.7931,2.7928,2.7929,2.7936,2.7936,2.7936,2.7936,0,2.7957,2.7961,2.7951,2.7951,2.7951,2.7943,2.7943,2.7936,2.7938,2.7929,2.7927,2.7928,2.792,2.7923,2.7914,2.7915,2.7898,2.7901,2.7899,2.7899,2.7886,2.7887,2.7847,2.7841,2.788,2.788,2.7879,0,2.7942,2.7935,2.7935,2.7931,2.793,2.7924,2.792,2.7925,2.792,2.7917,2.791,2.7902,2.7897,2.7882,2.7882,2.7875,2.7877,2.7863,2.7876,2.7874,2.7875,2.7875,2.7873,2.7861,2.786,2.786,2.786,0,2.7914,2.7916,2.7911,2.7906,2.7902,2.7898,2.7895,2.7891,2.7895,2.789,2.7881,2.7877,2.7867,2.7859,2.7852,2.785,2.7854,2.7856,2.7852,2.785,2.7848,2.7848,2.7891,2.7856,2.7857,2.7857,2.7857,2.7857,2.7893,2.7887,2.7885,2.7879,2.7877,2.7873,2.7866,2.7867,2.786,2.7853,2.7856,2.7846,2.7842,2.7833,2.783,2.7821,2.7826,2.7822,2.782,2.7819,2.7816,2.7851,2.782,2.782,2.782,2.782,2.782,0,2.7864,2.7864,2.7858,2.7853,2.7847,2.7853,2.7849,2.7844,2.7835,2.7832,2.7826,2.7815,2.7806,2.7805,2.7797,2.779,2.7791,2.7787,2.7787,2.7786,2.7813,2.7817,2.7785,2.7786,2.7786,2.7786,2.7786,2.7786,2.7849,2.7838,2.7839,2.7826,2.7825,2.7816,2.7813,2.7809,2.7806,2.7794,2.7787,2.7786,2.7783,2.7774,2.7765,2.7765,2.7761,2.7755,2.7756,2.7781,2.7784,2.7788,2.7791,2.7755,2.7755,2.7729,2.7729,2.7729]}]]